{"data":{"norad_id":52153,"intl_designator":"2022-032A","name":"TIANPING 2A","alt_names":[],"object_type":"PAYLOAD","status":"ACTIVE","operator":null,"country":"PRC","launch_date":"2022-03-30","launch_site_code":"JSC","launch_vehicle":null,"mission":null,"orbit_class":"UNKNOWN","rcs_meters":null,"size_class":null,"mass_kg":null,"dimensions":null,"purposes":[],"wikipedia_slug":null,"has_3d_model":false,"image_url":null,"decayed_at":null,"tle_current":{"epoch":"2026-05-25T03:43:40.783296Z","epoch_age_seconds":58097,"freshness":"FRESH","line1":"1 52153U 22032A   26145.15533314  .00000328  00000+0  33308-4 0  9991","line2":"2 52153  97.5874 183.5373 0008978 256.2532 103.7691 14.97129489226398","mean_motion":14.97129489,"eccentricity":0.0008978,"inclination_deg":97.5874,"raan_deg":183.5373,"arg_perigee_deg":256.2532,"mean_anomaly_deg":103.7691,"bstar":3.3308e-5,"rev_number":22639,"period_min":96.184064944298,"perigee_km":569.52763427907,"apogee_km":582.01407121947,"semimajor_km":6953.9078527493,"source":"CELESTRAK","updated_at":"2026-05-25T13:37:57.647747Z"}}}